Weather History for KABQ - August, 2012

Change the Weather History Date:

Friday, August 3, 2012

  Actual Average Record
Temperature  
Mean Temperature 79 °F 77 °F  
Max Temperature 92 °F 88 °F 99 °F (1977)
Min Temperature 65 °F 66 °F 52 °F (1907)
Degree Days  
Heating Degree Days 0 0  
Month to date heating degree days 0 0  
Since 1 June heating degree days 0 4  
Since 1 July heating degree days 0 0  
Cooling Degree Days 14 12  
Month to date cooling degree days 48 36  
Year to date cooling degree days 1156 847  
Since 1 June cooling degree days 984 749  
Growing Degree Days 28 (Base 50)    
Moisture  
Dew Point 50 °F    
Average Humidity 43    
Maximum Humidity 68    
Minimum Humidity 18    
Precipitation  
Precipitation T in 0.06 in 0.84 in (1999)
Month to date precipitation T 0.18  
Year to date precipitation 3.17 4.88  
Snow  
Snow 0.00 in - - ()
Month to date snowfall 0.0  
Since 1 June snowfall 0.0  
Since 1 July snowfall 0.0  
Snow Depth 0.00 in    
Sea Level Pressure  
Sea Level Pressure 29.89 in    
Wind  
Wind Speed 6 mph (WNW)    
Max Wind Speed 40 mph    
Max Gust Speed 49 mph    
Visibility 10 miles    
Events Thunderstorm    
T = Trace of Precipitation, MM = Missing Value Source: NWS Daily Summary

Daily Weather History Graph

Daily Weather History Graph

Search for Another Location

Airport or City:

Trip Planner

Search our weather history database for the weather conditions in past years. The results will help you decide how hot, cold, wet, or windy it might be!

Date:

Astronomy

Aug. 03, 2012 Rise Set
Actual Time 6:17 AM MDT 8:06 PM MDT
Civil Twilight 5:50 AM MDT 8:34 PM MDT
Nautical Twilight 5:16 AM MDT 9:07 PM MDT
Astronomical Twilight 4:41 AM MDT 9:43 PM MDT
Moon 8:54 PM MDT (8/3) 7:57 AM MDT (8/3)
Length of Visible Light 14h 44m
Length of Day
13h 49m
Full, 97% of the Moon is Illuminated
Aug 3
Full
Aug 9
Last Quarter
Aug 17
New
Aug 24
First Quarter
Aug 31
Full

Hourly Weather History & Observations

Time (MDT) Temp. Dew Point Humidity Pressure Visibility Wind Dir Wind Speed Gust Speed Precip Events Conditions
12:52 AM 72.0 °F 53.1 °F 51% 29.86 in 10.0 mi NNW 11.5 mph - N/A   Mostly Cloudy
1:52 AM 72.0 °F 53.1 °F 51% 29.83 in 10.0 mi North 6.9 mph - N/A   Mostly Cloudy
2:52 AM 71.1 °F 53.1 °F 53% 29.82 in 10.0 mi Calm Calm - N/A   Scattered Clouds
3:52 AM 70.0 °F 54.0 °F 57% 29.82 in 10.0 mi NNW 6.9 mph - N/A   Mostly Cloudy
4:52 AM 69.1 °F 54.0 °F 58% 29.82 in 10.0 mi Variable 3.5 mph - N/A   Mostly Cloudy
5:52 AM 66.0 °F 54.0 °F 65% 29.86 in 10.0 mi SSE 5.8 mph - N/A   Mostly Cloudy
6:52 AM 66.0 °F 54.0 °F 65% 29.87 in 10.0 mi East 3.5 mph - N/A   Mostly Cloudy
7:52 AM 66.9 °F 55.0 °F 66% 29.90 in 10.0 mi WNW 4.6 mph - N/A   Scattered Clouds
8:52 AM 72.0 °F 54.0 °F 53% 29.93 in 10.0 mi NW 4.6 mph - N/A   Scattered Clouds
9:52 AM 75.9 °F 54.0 °F 46% 29.92 in 10.0 mi Calm Calm - N/A   Scattered Clouds
10:52 AM 80.6 °F 51.8 °F 37% 30.17 in 10.0 mi NW 4.6 mph - N/A   Scattered Clouds
11:52 AM 81.0 °F 48.9 °F 33% 29.90 in 10.0 mi Calm Calm - N/A   Mostly Cloudy
12:52 PM 84.9 °F 46.0 °F 26% 29.85 in 10.0 mi SSE 3.5 mph - N/A   Scattered Clouds
1:52 PM 89.1 °F 42.1 °F 19% 29.80 in 10.0 mi Calm Calm - N/A   Scattered Clouds
2:52 PM 91.0 °F 41.0 °F 17% 29.78 in 10.0 mi Variable 3.5 mph - N/A   Scattered Clouds
3:52 PM 90.0 °F 45.0 °F 21% 29.78 in 10.0 mi SW 9.2 mph - N/A   Mostly Cloudy
4:23 PM 80.6 °F 48.2 °F 32% 30.09 in 5.0 mi West 33.4 mph 46.0 mph 0.00 in Thunderstorm Widespread Dust
4:39 PM 80.6 °F 48.2 °F 32% 30.09 in 10.0 mi West 26.5 mph 42.6 mph 0.00 in   Mostly Cloudy
4:52 PM 80.1 °F 50.0 °F 35% 29.84 in 10.0 mi West 28.8 mph 38.0 mph 0.00 in   Mostly Cloudy
5:52 PM 79.0 °F 48.9 °F 35% 29.82 in 10.0 mi NNW 13.8 mph 25.3 mph N/A   Mostly Cloudy
6:03 PM 78.8 °F 51.8 °F 39% 30.07 in 10.0 mi NE 13.8 mph - N/A   Mostly Cloudy
6:52 PM 79.0 °F 48.9 °F 35% 29.86 in 10.0 mi Variable 3.5 mph - N/A   Mostly Cloudy
7:52 PM 79.0 °F 48.9 °F 35% 29.88 in 10.0 mi NNW 6.9 mph - N/A   Mostly Cloudy
8:52 PM 75.9 °F 48.0 °F 37% 29.88 in 10.0 mi NNW 11.5 mph 21.9 mph N/A   Mostly Cloudy
9:52 PM 75.0 °F 50.0 °F 41% 29.88 in 10.0 mi WSW 3.5 mph - N/A   Mostly Cloudy
10:52 PM 73.9 °F 50.0 °F 43% 29.86 in 10.0 mi WSW 6.9 mph - N/A   Mostly Cloudy
11:52 PM 73.0 °F 51.1 °F 46% 29.86 in 10.0 mi Calm Calm - N/A   Scattered Clouds